Regional Weather Roundup
Issued by NWS

Home | Current Version | Previous Version | Text Only | Print | Product List | Glossary On
Versions: 1 2 3 4 5 6 7 8 9 10 11 12 13 14 15 16 17 18 19 20 21 22 23 24 25 26 27 28 29 30 31 32 33 34 35 36 37 38 39 40 41 42 43 44 45 46 47 48 49 50
000
ASUS42 KFFC 031103
RWRGA
WEATHER ROUNDUP FOR GEORGIA
NATIONAL WEATHER SERVICE PEACHTREE CITY GA
600 AM EST TUE MAR 03 2015

NOTE: "FAIR" INDICATES FEW OR NO CLOUDS BELOW 12,000 FEET WITH NO
SIGNIFICANT WEATHER AND/OR OBSTRUCTIONS TO VISIBILITY.

* = USE WITH CAUTION. THE STATIONS MARKED WITH AN ASTERISK MAY NOT
REPORT WEATHER SUCH AS PRECIPITATION, FOG, OR THUNDER AND ARE NOT
QUALITY CONTROLLED BY NWS.

THE REMARK "TC" DENOTES TEMPERATURE READING IN DEGREES CELSIUS.

GAZ001>058-031200-
NORTH GEORGIA

CITY           SKY/WX    TMP DP  RH WIND       PRES   REMARKS
ATLANTA        DRIZZLE   53  47  79 E3        30.21R
ATHENS         CLOUDY    55  52  89 E12       30.22S
CHAMBLEE       LGT RAIN  51  47  86 E3        30.20S
PEACHTREE CITY CLOUDY    54  49  83 CALM      30.21S
ROME           CLOUDY    47  42  83 NE5       30.20R
WEST ATLANTA   LGT RAIN  50  47  89 CALM      30.21R FOG
GAINESVILLE    CLOUDY    52  39  61 E12       30.23S
CARTERSVILLE   LGT RAIN  47  44  90 CALM      30.21S FOG


CITY           SKY/WX    TMP DP  RH WIND       PRES   REMARKS
DALTON*        DRIZZLE   43  43 100 CALM      30.22R
MARIETTA       DRIZZLE   50  48  93 NE3       30.20S
$$

GAZ059>098-102>109-031200-
CENTRAL GEORGIA

CITY           SKY/WX    TMP DP  RH WIND       PRES   REMARKS
AUGUSTA-BUSH   CLOUDY    58  54  86 E7        30.23R
AUGUSTA-DANIEL CLOUDY    59  54  83 E6        30.24R
COLUMBUS       CLOUDY    58  57  97 E5        30.19R FOG
MACON          CLOUDY    58  53  84 CALM      30.21R
ROBINS AFB     CLOUDY    59  54  83 N1        30.21R


CITY           SKY/WX    TMP DP  RH WIND       PRES   REMARKS
LAGRANGE*      CLOUDY    58  57  96 CALM      30.20R
SYLVANIA*      HVY RAIN  56  56 100 SE3       30.23R
MILLEDGEVILLE* CLOUDY    57  55  94 CALM      30.23R
$$

GAZ099>101-110>166-031200-
SOUTH GEORGIA

CITY           SKY/WX    TMP DP  RH WIND       PRES   REMARKS
SAVANNAH       FOG       56  55  97 E6        30.23R VSB 1/4
VALDOSTA       CLEAR     54  53  97 CALM      30.20R FOG
ALMA           MOCLDY    54  54 100 CALM      30.20F FOG
ST SIMONS      CLOUDY    59  57  93 NE3       30.22R
FT STEWART     CLOUDY    58  57  96 CALM      30.20S
ALBANY         FOG       55  55 100 CALM      30.22R VSB 1/4
HUNTER AFB     PTCLDY    56  56 100 N2        30.21R FOG
MOODY AFB      MOCLDY    53  53  98 CALM      30.19S FOG
BRUNSWICK      CLOUDY    61  59  94 N3        30.23R


CITY           SKY/WX    TMP DP  RH WIND       PRES   REMARKS
BAINBRIDGE*    FOG       57  55  94 CALM      30.20R VSB 1/4
MOULTRIE*      FOG       54  54 100 CALM      30.21R VSB 3/4
VIDALIA*       CLOUDY    61  61 100 CALM      30.21S
WAYCROSS*      CLOUDY    61  61 100 CALM      30.21S FOG
DOUGLAS*       FOG       59  55  88 CALM      30.22F VSB 3/4
$$


USA.gov is the U.S. government's official web portal to all federal, state and local government web resources and services.